Regional Weather Roundup
Issued by NWS

Home | Current Version | Previous Version | Text Only | Print | Product List | Glossary On
Versions: 1 2 3 4 5 6 7 8 9 10 11 12 13 14 15 16 17 18 19 20 21 22 23 24 25 26 27 28 29 30 31 32 33 34 35 36 37 38 39 40 41 42 43 44 45 46 47 48 49 50
000
ASUS43 KMKX 182111
RWRWI

WISCONSIN REGIONAL WEATHER ROUNDUP
NATIONAL WEATHER SERVICE MILWAUKEE/SULLIVAN WI
400 PM CDT SAT APR 18 2015

NOTE: "FAIR" INDICATES FEW OR NO CLOUDS BELOW 12,000 FEET WITH NO
SIGNIFICANT WEATHER AND/OR OBSTRUCTIONS TO VISIBILITY.

WIZ001-002-006>008-014>016-023>028-182200-
NORTHWEST WISCONSIN

CITY           SKY/WX    TMP DP  RH WIND       PRES   REMARKS
SUPERIOR ARPT  SUNNY     41  34  74 E22G28    30.15F
ASHLAND        SUNNY     48  34  58 NE18      30.16F
HAYWARD        SUNNY     67  24  19 E12G20    30.05F
SIREN          SUNNY     70  29  21 E12       30.02F
CUMBERLAND     PTSUNNY   66  32  28 SE10      30.03F
RICE LAKE      PTSUNNY   67  32  26 SE13      30.05F
CHETEK         PTSUNNY   67  36  31 E9G16     30.04F
LADYSMITH      MOSUNNY   69  30  23 SE12      30.07F
EAU CLAIRE     PTSUNNY   72  33  24 E17G23    30.01F
MENOMONIE      PTSUNNY   71  32  24 E16       30.01F
NEW RICHMOND   PTSUNNY   69  29  22 E14G20    30.00F
OSCEOLA        PTSUNNY   69  32  25 E13       30.02F
$$

WIZ003>005-009-010-017-018-182200-
NORTH CENTRAL WISCONSIN

CITY           SKY/WX    TMP DP  RH WIND       PRES   REMARKS
MANITOWISH WTR SUNNY     62  22  21 SE10G18   30.11F
ARBOR VITAE    SUNNY     63  19  18 SE10      30.11F HAZE
WOODRUFF       SUNNY     63  19  18 SE10      30.11F HAZE
RHINELANDER    SUNNY     63  21  20 SE12G20   30.12F
EAGLE RIVER    SUNNY     62  13  15 SE10      30.12F
LAND O LAKES   SUNNY     62  15  15 E12       30.13F
PHILLIPS       SUNNY     65  28  24 E7        30.08F
TOMAHAWK       SUNNY     63  21  20 SE3       30.11F
MEDFORD        PTSUNNY   60  28  30 SE13G18   30.08F
MERRILL        MOSUNNY   64  29  27 SE9       30.10F
$$

WIZ029-030-035-036-043>047-182200-
CENTRAL WISCONSIN

CITY           SKY/WX    TMP DP  RH WIND       PRES   REMARKS
WAUSAU         PTSUNNY   60  14  16 SE15G24   30.10F
MOSINEE        SUNNY     61  25  25 E14G23    30.12F
MARSHFIELD     PTSUNNY   65  25  22 E17G24    30.08F
STEVENS POINT  PTSUNNY   59  26  28 E17G24    30.12F
WAUPACA        MOSUNNY   64  25  22 E12G21    30.13F
WAUTOMA        SUNNY     64  19  17 E15G23    30.11F
WISC RAPIDS    MOSUNNY   64  29  26 E18G26    30.10F
CAMP DOUGLAS   MOSUNNY   68  36  30 E18       30.05F
$$

WIZ011>013-019>022-031-037>040-048>050-182200-
NORTHEAST WISCONSIN

CITY           SKY/WX    TMP DP  RH WIND       PRES   REMARKS
ANTIGO         SUNNY     60  24  25 SE16      30.13F
SHAWANO        MOSUNNY   60  25  25 E10       30.16F
OCONTO         MOSUNNY   56  28  34 NE9G18    30.17F
STURGEON BAY   MOSUNNY   55  23  28 NE14      30.20F
GREEN BAY      MOSUNNY   57  34  41 NE17      30.16F
MANITOWOC      SUNNY     53  34  48 NE10G21   30.14F
APPLETON       MOSUNNY   57  28  33 NE14G21   30.14F
CLINTONVILLE   MOSUNNY   59  25  27 E13G20    30.14F
OSHKOSH        SUNNY     61  31  32 NE12      30.11F
$$

WIZ032>034-041-042-053>061-182200-
SOUTHWEST WISCONSIN

CITY           SKY/WX    TMP DP  RH WIND       PRES   REMARKS
LA CROSSE      MOSUNNY   75  36  24 SE16G23   29.98F
SPARTA         SUNNY     71  30  22 E17G23    30.02F
VIROQUA        SUNNY     71  37  29 E12G20    30.01F
BOSCOBEL       PTSUNNY   73  37  27 E13G18    29.99F
PRAIRIE DU CHI MOSUNNY   73  36  25 E12G23    29.96F
PLATTEVILLE    MOSUNNY   72  37  27 E16G24    29.99F
$$

WIZ056-057-062-063-064-067-068-182200-
SOUTH CENTRAL WISCONSIN

CITY           SKY/WX    TMP DP  RH WIND       PRES   REMARKS
REEDSBURG      SUNNY     67  36  32 E13G18    30.04F
BARABOO/DELLS  SUNNY     66  32  27 E14G24    30.05F
LONE ROCK      PTSUNNY   69  37  30 E18       30.02F
MINERAL POINT  SUNNY     72  32  23 E16       30.01F
MADISON        PTSUNNY   68  32  26 E13G23    30.05F
MIDDLETON      SUNNY     69  30  23 E13       30.05F
WATERTOWN      SUNNY     67  31  26 E12       30.06F
MONROE         MOSUNNY   70  34  26 E18       30.01F
JANESVILLE     SUNNY     72  27  18 E17       30.03F
$$

WIZ051-052-058>065-066-070>072-182200-
SOUTHEAST WISCONSIN

CITY           SKY/WX    TMP DP  RH WIND       PRES   REMARKS
MILWAUKEE      MOSUNNY   47  34  60 N22G30    30.10F
WAUKESHA       SUNNY     59  36  41 NE9G17    30.09F
MILWAUKEE/TIMM SUNNY     54  30  40 NE14G21   30.11F
RACINE         SUNNY     47  35  63 N25       30.10F
BURLINGTON     SUNNY     60  35  38 NE12      30.06F
KENOSHA        SUNNY     57  37  47 NE17      30.07F
FOND DU LAC    SUNNY     64  27  24 NE14G24   30.11F
SHEBOYGAN      SUNNY     55  35  47 NE16      30.13F
WEST BEND      SUNNY     57  32  38 NE16      30.10F
JUNEAU         SUNNY     65  29  25 NE13      30.09S
$$

LSZ147-162-182200-
LAKE SUPERIOR

STATION/POSITION TIME  TEMP    WIND        PRES    WAVE
                       AIR SEA DIR/SP/G            HT/PER
                 (UTC) (F)     (DEG/KT/KT) (MB)    (FT/S)
DEVILS ISLAND    2100   36      60/ 21/ 23 1022.6F
PORT WING        2040   39      40/ 22/ 27 1020.7F
SAXON HARBOR     2000   40      10/ 12/ 14 1021.0F
$$

LMZ867-665-643>646-182200-
LAKE MICHIGAN

STATION/POSITION TIME  TEMP    WIND        PRES    WAVE
                       AIR SEA DIR/SP/G            HT/PER
                 (UTC) (F)     (DEG/KT/KT) (MB)    (FT/S)
CHAMBERS ISLAND  2000   46      30/  8/ 10 1022.7F
NORTHPORT PIER   2000   45      90/  6/  8 1022.7F
SISTER BAY       1847   58      20/  9/ 17   N/A
KEWAUNEE LAKESHO 2000   48      30/ 14/ 19 1021.3S
SHEBOYGAN LAKESH 2100   42      10/ 20/ 23 1020.9F
PORT WASHINGTON  2040   49      50/ 14/ 18 1020.3F
MILWAUKEE LAKESH 2000   43      10/ 18/ 21   N/A
KENOSHA   LAKESH 2100   44      20/ 22/ 25 1018.3F
$$

TC  - TEMPERATURE IN CELSIUS
VSB - VISIBILITY IN STATUTE MILES
WCI - WIND CHILL INDEX
HX  - HEAT INDEX



USA.gov is the U.S. government's official web portal to all federal, state and local government web resources and services.